Location: Hannover
(52.3723°N, 9.7339°E)
Time: 15:51:15
(UTC+01:00)

ISS - Pass Details

Date: 15 November 2017
Orbit: 402 x 407 km, 51.6° (Epoch: 24 November)

Event Time Altitude Azimuth Distance (km) Brightness Sun altitude
Exits shadow 06:27:59 11° 243° (WSW) 1,411 -1.5 -11.3°
Maximum altitude 06:29:11 12° 220° (SW) 1,313 -1.5 -11.1°
Drops below altitude 10° 06:30:38 10° 193° (SSW) 1,451 -1.0 -10.9°
Sets 06:33:38 0° 163° (SSE) 2,305 0.5 -10.4°
